Regional Weather Roundup
Issued by NWS

Home | Current Version | Previous Version | Graphics & Text | Print | Product List | Glossary On
Versions: 1 2 3 4 5 6 7 8 9 10 11 12 13 14 15 16 17 18 19 20 21 22 23 24 25 26 27 28 29 30 31 32 33 34 35 36 37 38 39 40 41 42 43 44 45 46 47 48 49 50
000
ASUS43 KIND 022309
RWRIN

WEATHER ROUNDUP FOR INDIANA
NATIONAL WEATHER SERVICE INDIANAPOLIS IN
700 PM EDT TUE SEP 02 2014

NOTE: "FAIR" INDICATES FEW OR NO CLOUDS BELOW 12,000 FEET WITH NO
SIGNIFICANT WEATHER AND/OR OBSTRUCTIONS TO VISIBILITY.

* - STATION DOES NOT REPORT WEATHER SUCH AS PRECIPITATION OR FOG.

+ - STATION NOT QUALITY CONTROLLED BY THE NATIONAL WEATHER SERVICE.
    USE DATA WITH CAUTION...ESPECIALLY DEWPOINT AND RELATIVE
    HUMIDITY OBSERVATIONS.

INZ001>003-010>013-019-020-030000-
NORTHWEST INDIANA

CITY           SKY/WX    TMP DP  RH WIND       PRES   REMARKS
GARY /AIRPORT/ MOSUNNY   77  66  69 NE5       29.90S
KNOX *+        SUNNY     78  62  56 W5        29.89F
LA PORTE +     SUNNY     76  66  71 CALM      29.91F
MICHIGAN CITY+ SUNNY     73  61  64 NE5       29.91S
MONTICELLO +   MOSUNNY   76  68  76 SW6       29.90F
RENSSELAER +   MOSUNNY   79  66  65 W5        29.90F
VALPARAISO     SUNNY     78  62  57 NW6       29.90F

$$

LMZ046-743>745-030000-
SOUTHERN LAKE MICHIGAN

STATION/POSITION TIME  TEMP WIND        PRES
                       AIR  DIR/SP/G
                 (UTC) (F)  (DEG/KT/KT) (MB)
MICHIGAN CITY    2300   73   40/  6/  6   N/A

$$

INZ004-005-014>016-021>024-030000-
NORTH CENTRAL INDIANA

CITY           SKY/WX    TMP DP  RH WIND       PRES   REMARKS
ELKHART        SUNNY     77  57  50 NW3       29.92S
GOSHEN         MOSUNNY   76  64  66 NW6       29.91S
LOGANSPORT +   MOSUNNY   73  64  73 SW9       29.92R
PERU/GRISSOM   PTSUNNY   76  71  85 W8        29.91S
ROCHESTER +    MOSUNNY   79  66  65 NW5       29.91S
SOUTH BEND     SUNNY     78  59  51 N9        29.91F
WARSAW +       MOSUNNY   75  64  69 N7        29.91S

$$

INZ006>009-017-018-025>027-030000-
NORTHEAST INDIANA

CITY           SKY/WX    TMP DP  RH WIND       PRES   REMARKS
ANGOLA *+      MOSUNNY   79  64  61 W7        29.91S
AUBURN +       MOSUNNY   79  59  50 W9        29.92R
FORT WAYNE     PTSUNNY   72  68  87 W6        29.92R
HUNTINGTON +   PTSUNNY   74  69  82 W6        29.91S

$$

INZ028-029-035-036-043>045-051>053-030000-
WEST CENTRAL INDIANA

CITY           SKY/WX    TMP DP  RH WIND       PRES   REMARKS
GREENCASTLE +  MOSUNNY   72  68  88 CALM      29.94S
LAFAYETTE      PTSUNNY   77  70  79 CALM      29.90F
TERRE HAUTE    MOSUNNY   76  68  76 CALM      29.93S

$$

INZ030>032-037>040-046>048-054>057-064-065-030000-
CENTRAL INDIANA

CITY           SKY/WX    TMP DP  RH WIND       PRES   REMARKS
CP ATTERBURY + MOSUNNY   79  66  65 W3        29.94S
FRANKFORT +    PTSUNNY   75  69  79 W3        29.94S
GREENWOOD *+   SUNNY     77  68  73 W7        29.94S
INDIANAPOLIS   PTSUNNY   77  66  68 W7        29.93S
-EAGLE CREEK   MOSUNNY   76  65  68 NW5       29.92S
KOKOMO *+      PTSUNNY   75  66  73 W7        29.92S
MARION +       PTSUNNY   76  65  69 W6        29.93S
MT COMFORT *+  MOSUNNY   77  66  69 W5        29.93S
SHELBYVILLE    SUNNY     79  67  66 NW6       29.93S
ZIONSVILLE +   PTSUNNY   75  67  74 W3        29.94S

$$

INZ033-034-041-042-049-050-058-059-030000-
EAST CENTRAL INDIANA

CITY           SKY/WX    TMP DP  RH WIND       PRES   REMARKS
MUNCIE         PTSUNNY   75  66  73 W5        29.93S

$$

INZ060-061-067>069-081>083-085>088-030000-
SOUTHWEST INDIANA

CITY           SKY/WX    TMP DP  RH WIND       PRES   REMARKS
EVANSVILLE     MOSUNNY   82  70  66 NW6       29.94R
WASHINGTON +   MOSUNNY   78  70  76 NW5       29.93S

$$

INZ062-063-066-070>080-084-089>092-030000-
SOUTH CENTRAL AND SOUTHEAST INDIANA

CITY           SKY/WX    TMP DP  RH WIND       PRES   REMARKS
BEDFORD +      PTSUNNY   77  66  69 NW3       29.94
BLOOMINGTON    SUNNY     77  69  76 NW3       29.94S

$$



USA.gov is the U.S. government's official web portal to all federal, state and local government web resources and services.